GFSNE_700_temp_234.txt.gz
Temp
1 1 1 0 0 -0 -0 -0 -0 0 1 0 -0 -1 -2 -2 -2 -2 -2 -2 -3 -3 -3 -3 -2 -2 -1 -1 -1 -1 -0 -0 -0 -0 -1 -1 -1 -2
1 1 0 -0 -0 -0 -0 -1 -1 -2 -1 -1 -1 -2 -3 -3 -3 -3 -3 -4 -4 -4 -4 -4 -4 -4 -4 -3 -2 -2 -1 -1 -1 -1 -1 -1 -2 -2
-0 -0 -1 -1 -1 -1 -1 -1 -1 -2 -2 -2 -2 -2 -3 -4 -4 -4 -4 -4 -4 -4 -4 -4 -3 -4 -3 -4 -3 -3 -3 -2 -2 -1 -2 -2 -3 -3
-2 -2 -2 -1 -1 -1 -2 -2 -2 -2 -2 -2 -3 -4 -4 -4 -4 -4 -4 -4 -4 -4 -3 -3 -4 -3 -4 -4 -4 -3 -3 -3 -3 -3 -3 -3 -3 -3
-3 -2 -2 -2 -2 -2 -2 -2 -2 -2 -2 -3 -3 -3 -3 -4 -4 -4 -4 -4 -3 -4 -3 -4 -4 -4 -4 -4 -4 -4 -4 -4 -4 -4 -4 -3 -3 -3
-4 -3 -4 -4 -3 -3 -3 -2 -2 -3 -3 -2 -3 -3 -5 -5 -5 -5 -5 -5 -5 -4 -4 -5 -5 -5 -4 -4 -4 -4 -4 -4 -4 -4 -4 -3 -3 -4
-7 -6 -5 -4 -3 -4 -3 -3 -3 -3 -2 -3 -5 -5 -5 -5 -6 -5 -5 -5 -5 -5 -5 -5 -5 -5 -5 -5 -5 -5 -5 -5 -5 -4 -5 -5 -5 -5
-7 -7 -6 -5 -4 -4 -4 -3 -3 -3 -2 -3 -5 -5 -5 -4 -5 -4 -5 -5 -5 -5 -5 -6 -6 -6 -6 -5 -5 -5 -5 -5 -5 -5 -5 -6 -6 -6
-7 -6 -7 -5 -5 -4 -4 -4 -3 -3 -3 -3 -4 -5 -5 -5 -5 -5 -6 -6 -5 -5 -5 -5 -6 -6 -6 -6 -6 -6 -5 -5 -6 -6 -5 -5 -5 -6
-7 -7 -7 -6 -5 -5 -4 -4 -4 -4 -4 -4 -5 -6 -6 -5 -5 -5 -5 -5 -5 -6 -6 -6 -6 -6 -6 -6 -6 -6 -6 -6 -6 -6 -6 -6 -7 -7
-7 -7 -6 -6 -6 -6 -5 -5 -5 -5 -5 -5 -6 -6 -6 -6 -6 -6 -6 -6 -6 -6 -7 -7 -7 -7 -7 -7 -7 -7 -7 -7 -7 -8 -8 -8 -9 -9
-7 -7 -7 -7 -7 -6 -6 -6 -6 -7 -7 -7 -7 -7 -7 -7 -7 -7 -7 -7 -7 -7 -7 -8 -8 -8 -8 -8 -9 -9 -9 -9 -9 -10 -10 -10 -10 -10
-7 -8 -8 -8 -8 -7 -7 -8 -8 -8 -8 -7 -7 -7 -7 -7 -7 -8 -8 -8 -8 -8 -8 -9 -9 -9 -9 -10 -10 -11 -11 -11 -12 -12 -12 -12 -12 -12
-8 -9 -9 -8 -8 -8 -8 -9 -9 -8 -8 -8 -8 -8 -8 -8 -8 -9 -9 -9 -9 -9 -10 -10 -11 -11 -11 -12 -12 -12 -13 -13 -13 -13 -13 -13 -13 -13
-9 -9 -9 -9 -9 -9 -9 -9 -9 -9 -9 -9 -9 -9 -9 -9 -9 -9 -9 -9 -10 -10 -11 -11 -12 -12 -12 -13 -13 -13 -13 -14 -14 -14 -14 -14 -14 -14
-10 -10 -10 -10 -9 -9 -9 -10 -9 -9 -10 -10 -10 -9 -9 -9 -9 -10 -10 -10 -11 -11 -12 -12 -12 -13 -13 -13 -14 -14 -14 -14 -14 -14 -14 -14 -15 -15
-11 -11 -10 -10 -10 -10 -10 -10 -10 -10 -10 -10 -10 -9 -9 -10 -10 -11 -11 -12 -12 -12 -13 -13 -13 -14 -14 -14 -15 -15 -15 -15 -15 -15 -16 -16 -16 -16
-11 -11 -10 -10 -10 -10 -10 -11 -11 -11 -10 -10 -10 -10 -10 -11 -11 -12 -13 -13 -13 -13 -14 -14 -14 -14 -15 -15 -15 -16 -16 -16 -16 -17 -17 -17 -17 -17
-11 -11 -11 -10 -11 -11 -11 -11 -11 -11 -10 -10 -11 -11 -11 -12 -13 -13 -13 -14 -14 -14 -14 -14 -14 -15 -15 -16 -16 -16 -17 -17 -17 -17 -18 -18 -17 -17
-11 -11 -11 -11 -11 -11 -11 -11 -11 -11 -11 -11 -11 -12 -13 -13 -14 -14 -14 -14 -14 -14 -14 -14 -14 -15 -15 -16 -16 -17 -17 -17 -17 -17 -17 -17 -18 -17
-11 -11 -11 -11 -12 -12 -12 -12 -11 -12 -12 -12 -13 -13 -14 -14 -14 -14 -14 -14 -14 -14 -15 -15 -15 -15 -15 -16 -17 -17 -18 -18 -18 -18 -18 -17 -17 -17
-11 -11 -12 -12 -12 -12 -12 -12 -12 -13 -13 -13 -14 -14 -15 -15 -14 -14 -14 -14 -14 -15 -15 -16 -16 -16 -16 -17 -17 -17 -17 -18 -19 -19 -19 -19 -18 -17
-11 -11 -12 -12 -12 -12 -13 -13 -14 -14 -14 -15 -15 -15 -15 -15 -15 -14 -14 -14 -14 -15 -16 -16 -17 -17 -17 -17 -18 -18 -18 -18 -18 -18 -19 -19 -19 -19

GFSNE_700_temp_240.txt.gz
Temp
-1 -0 -0 -0 -0 0 0 0 1 1 1 0 0 -0 -1 -1 -0 -1 -1 -1 -1 -1 -1 -1 -1 -1 -1 -1 -1 -1 -1 -2 -1 -1 -1 -1 -1 -1
-1 -1 -1 -1 -1 -0 -0 -0 -0 -0 -0 -0 -1 -1 -2 -2 -1 -1 -1 -2 -2 -2 -2 -2 -1 -2 -2 -2 -2 -2 -2 -2 -2 -1 -1 -2 -2 -1
-2 -2 -2 -2 -1 -1 -1 -1 -2 -2 -2 -2 -1 -2 -2 -3 -3 -2 -2 -3 -2 -2 -2 -2 -2 -3 -3 -2 -2 -2 -2 -2 -2 -2 -2 -2 -2 -2
-3 -3 -3 -3 -3 -3 -2 -3 -3 -3 -3 -2 -2 -3 -3 -3 -3 -3 -2 -3 -2 -2 -2 -2 -2 -2 -2 -2 -2 -2 -2 -2 -2 -2 -2 -3 -3 -2
-3 -3 -4 -4 -4 -4 -4 -5 -4 -5 -4 -3 -3 -3 -4 -4 -3 -3 -3 -3 -2 -2 -2 -2 -2 -2 -2 -2 -2 -3 -2 -3 -2 -2 -3 -3 -3 -3
-4 -5 -6 -7 -7 -8 -8 -7 -6 -6 -5 -4 -4 -4 -4 -4 -4 -5 -4 -5 -4 -3 -3 -2 -3 -3 -3 -3 -3 -3 -3 -4 -3 -4 -4 -4 -4 -4
-7 -7 -7 -6 -7 -8 -8 -6 -6 -5 -5 -5 -4 -4 -5 -6 -6 -5 -6 -5 -5 -4 -3 -3 -3 -3 -3 -3 -3 -3 -4 -5 -4 -4 -4 -5 -4 -5
-7 -7 -7 -7 -7 -7 -7 -6 -6 -5 -5 -5 -5 -5 -6 -6 -6 -6 -6 -6 -6 -4 -4 -4 -3 -4 -4 -4 -4 -4 -5 -5 -5 -5 -5 -5 -5 -6
-7 -7 -7 -7 -7 -7 -7 -6 -6 -5 -5 -5 -5 -7 -7 -7 -7 -7 -7 -6 -5 -5 -5 -5 -5 -4 -5 -5 -5 -5 -5 -5 -5 -5 -5 -6 -6 -6
-7 -7 -7 -7 -7 -7 -7 -6 -6 -6 -6 -6 -6 -7 -7 -7 -6 -6 -6 -6 -6 -6 -6 -6 -6 -6 -5 -5 -6 -6 -6 -6 -6 -6 -6 -6 -6 -6
-8 -7 -7 -7 -8 -8 -8 -7 -7 -7 -7 -7 -7 -7 -7 -7 -7 -7 -7 -7 -7 -7 -6 -6 -6 -6 -6 -6 -7 -7 -7 -7 -8 -8 -8 -8 -8 -8
-8 -8 -7 -8 -9 -9 -9 -8 -8 -8 -8 -8 -8 -8 -8 -8 -8 -8 -8 -8 -7 -7 -7 -7 -7 -7 -7 -8 -8 -8 -8 -8 -8 -8 -8 -8 -9 -9
-8 -8 -7 -8 -10 -10 -10 -9 -9 -9 -9 -9 -9 -9 -9 -8 -8 -8 -8 -8 -7 -7 -7 -7 -8 -8 -9 -9 -9 -9 -9 -9 -10 -10 -10 -11 -11 -11
-8 -8 -8 -9 -10 -10 -10 -10 -9 -9 -9 -9 -9 -9 -9 -9 -8 -8 -8 -8 -8 -8 -8 -8 -9 -10 -10 -10 -10 -10 -10 -10 -11 -11 -12 -12 -12 -13
-8 -8 -9 -11 -11 -10 -10 -10 -10 -10 -10 -10 -10 -9 -9 -9 -8 -8 -8 -8 -8 -9 -9 -10 -11 -11 -11 -10 -10 -10 -10 -11 -11 -12 -12 -13 -13 -13
-9 -9 -11 -11 -11 -11 -11 -10 -10 -11 -10 -10 -10 -10 -10 -9 -9 -8 -9 -9 -9 -10 -11 -11 -11 -11 -10 -11 -10 -10 -11 -11 -12 -12 -12 -13 -14 -14
-10 -11 -11 -11 -11 -11 -11 -11 -11 -11 -11 -11 -11 -10 -10 -10 -9 -10 -10 -11 -11 -12 -12 -11 -11 -11 -11 -11 -11 -11 -11 -12 -13 -13 -13 -13 -15 -15
-11 -12 -12 -11 -11 -11 -11 -11 -11 -11 -11 -11 -11 -11 -11 -10 -10 -11 -11 -11 -12 -12 -12 -12 -12 -12 -11 -11 -11 -11 -12 -13 -14 -14 -14 -14 -14 -16
-12 -12 -12 -11 -11 -12 -11 -11 -11 -11 -12 -12 -12 -11 -12 -12 -12 -12 -13 -13 -13 -12 -12 -12 -12 -13 -13 -13 -13 -12 -13 -14 -14 -15 -15 -15 -15 -16
-12 -12 -12 -11 -12 -11 -11 -12 -12 -12 -12 -12 -12 -13 -13 -13 -14 -14 -14 -14 -14 -13 -12 -13 -13 -12 -13 -12 -13 -15 -14 -14 -14 -15 -15 -15 -16 -17
-12 -11 -11 -12 -12 -12 -12 -12 -12 -12 -12 -13 -13 -14 -14 -15 -15 -15 -15 -15 -14 -14 -13 -13 -13 -13 -13 -13 -14 -14 -15 -16 -15 -16 -16 -15 -15 -16
-12 -12 -12 -12 -12 -12 -12 -12 -12 -13 -13 -14 -14 -15 -15 -15 -15 -16 -15 -15 -14 -14 -15 -14 -14 -14 -13 -14 -15 -14 -14 -15 -16 -17 -18 -18 -17 -17
-12 -12 -12 -12 -12 -13 -13 -13 -13 -13 -14 -15 -15 -15 -16 -16 -15 -15 -16 -15 -15 -15 -15 -15 -15 -15 -14 -15 -15 -15 -15 -16 -16 -16 -17 -18 -18 -18

GFSNE_700_temp_243.txt.gz
Temp
-1 -1 -0 -0 -0 -0 -0 -0 -0 0 0 0 0 0 0 -0 -1 -1 -1 -2 -2 -2 -2 -2 -1 -1 -1 -1 -1 -1 -1 -0 -0 -0 -0 -0 -0 -0
-1 -1 -1 -0 -1 -1 -0 -1 -1 -1 -1 -1 -1 -1 -1 -1 -2 -2 -2 -2 -3 -3 -2 -2 -2 -2 -2 -2 -1 -1 -1 -1 -1 -1 -1 -1 -1 -1
-2 -2 -2 -2 -2 -2 -2 -2 -2 -2 -2 -2 -3 -3 -3 -3 -3 -3 -3 -3 -3 -4 -3 -2 -2 -2 -2 -2 -2 -1 -1 -1 -1 -2 -2 -2 -2 -2
-3 -3 -2 -2 -2 -2 -3 -3 -3 -4 -4 -4 -5 -4 -4 -5 -5 -5 -4 -4 -4 -4 -3 -2 -2 -2 -2 -2 -2 -2 -2 -1 -1 -2 -2 -2 -1 -2
-4 -3 -3 -3 -4 -4 -5 -6 -6 -6 -6 -6 -5 -6 -6 -6 -6 -6 -6 -6 -5 -4 -4 -3 -3 -2 -2 -3 -2 -2 -1 -1 -1 -2 -2 -2 -2 -2
-4 -4 -5 -5 -6 -7 -8 -8 -8 -7 -7 -6 -6 -7 -6 -6 -7 -7 -7 -7 -7 -6 -5 -5 -4 -4 -4 -3 -3 -2 -2 -2 -2 -2 -2 -3 -3 -3
-5 -6 -6 -6 -7 -6 -7 -7 -6 -6 -6 -6 -6 -5 -6 -7 -7 -7 -7 -7 -7 -7 -6 -5 -4 -4 -4 -3 -3 -3 -3 -3 -3 -3 -4 -4 -4 -3
-6 -6 -6 -6 -6 -7 -7 -7 -6 -6 -6 -5 -5 -5 -6 -7 -7 -7 -7 -7 -7 -7 -6 -5 -5 -4 -4 -4 -4 -4 -4 -4 -4 -4 -4 -4 -4 -4
-6 -7 -6 -7 -7 -7 -7 -7 -6 -6 -6 -6 -6 -6 -7 -7 -7 -7 -7 -7 -7 -7 -6 -6 -5 -5 -5 -5 -5 -4 -4 -4 -5 -5 -5 -5 -5 -5
-7 -7 -7 -7 -7 -7 -7 -8 -7 -7 -6 -7 -7 -7 -7 -7 -7 -7 -7 -7 -7 -7 -7 -6 -6 -6 -6 -6 -5 -5 -5 -5 -5 -6 -6 -6 -6 -6
-7 -7 -7 -8 -7 -8 -9 -9 -8 -8 -8 -8 -8 -8 -8 -8 -8 -8 -8 -7 -7 -7 -7 -7 -6 -6 -6 -6 -6 -6 -6 -6 -6 -7 -7 -7 -6 -6
-7 -8 -8 -8 -8 -9 -10 -10 -9 -9 -9 -9 -9 -9 -8 -8 -8 -8 -8 -8 -8 -7 -7 -7 -7 -7 -7 -7 -7 -7 -7 -8 -8 -8 -8 -7 -7 -8
-8 -8 -8 -8 -9 -9 -10 -9 -9 -10 -9 -9 -9 -9 -9 -9 -9 -8 -8 -8 -8 -8 -7 -7 -7 -7 -8 -8 -8 -9 -9 -8 -8 -8 -8 -8 -8 -8
-8 -8 -9 -9 -10 -10 -10 -10 -10 -10 -10 -10 -10 -10 -9 -9 -9 -9 -9 -8 -8 -8 -8 -8 -8 -9 -9 -10 -9 -9 -8 -9 -9 -9 -9 -9 -10 -10
-9 -9 -9 -10 -11 -11 -10 -11 -10 -10 -10 -10 -10 -10 -10 -10 -9 -9 -9 -9 -8 -8 -8 -9 -9 -10 -10 -10 -9 -9 -9 -10 -10 -10 -10 -10 -10 -10
-9 -9 -10 -11 -11 -11 -11 -11 -11 -10 -10 -11 -11 -10 -10 -10 -10 -9 -9 -9 -9 -9 -9 -9 -10 -10 -10 -10 -10 -10 -10 -10 -10 -10 -11 -11 -11 -12
-10 -10 -11 -11 -11 -11 -11 -11 -11 -11 -11 -11 -11 -11 -11 -11 -10 -10 -10 -11 -11 -11 -10 -11 -11 -11 -11 -11 -11 -11 -11 -11 -11 -11 -11 -12 -13 -13
-11 -11 -12 -12 -12 -11 -11 -11 -11 -11 -11 -11 -11 -11 -11 -11 -11 -12 -12 -12 -12 -13 -13 -13 -12 -11 -11 -12 -11 -11 -11 -12 -12 -12 -12 -13 -13 -14
-12 -12 -12 -12 -12 -11 -11 -12 -11 -11 -11 -11 -11 -12 -12 -13 -13 -13 -14 -14 -14 -14 -14 -14 -13 -13 -13 -13 -12 -12 -12 -12 -13 -13 -13 -14 -14 -15
-12 -12 -12 -12 -12 -11 -12 -12 -12 -11 -11 -12 -12 -13 -13 -14 -14 -14 -14 -15 -15 -15 -14 -14 -14 -14 -14 -14 -14 -14 -12 -12 -13 -14 -13 -14 -15 -16
-12 -12 -12 -12 -12 -12 -12 -12 -12 -12 -12 -12 -13 -14 -14 -14 -14 -15 -15 -15 -15 -15 -14 -14 -14 -14 -14 -14 -14 -14 -15 -14 -14 -14 -14 -14 -14 -15
-12 -12 -12 -12 -12 -12 -12 -12 -12 -12 -13 -13 -14 -14 -14 -15 -15 -15 -15 -15 -15 -15 -15 -14 -14 -14 -14 -14 -14 -14 -14 -15 -16 -16 -16 -16 -16 -15
-12 -12 -12 -12 -12 -12 -12 -13 -12 -13 -13 -14 -14 -14 -14 -15 -15 -15 -15 -15 -15 -15 -15 -15 -15 -15 -15 -15 -15 -15 -15 -15 -15 -16 -16 -16 -17 -17

GFSNE_700_temp_249.txt.gz
Temp
-2 -2 -2 -1 -1 -1 -1 -1 -0 0 0 -0 -0 -1 -1 -0 -0 -0 -0 -0 -0 0 -0 -0 -0 -1 -1 -1 -1 -1 -1 -2 -1 -1 -1 -1 -1 -1
-2 -2 -2 -2 -2 -1 -1 -1 -1 -1 -1 -1 -1 -1 -1 -1 -1 -1 -2 -2 -2 -2 -2 -2 -2 -2 -2 -2 -2 -2 -2 -2 -2 -2 -2 -2 -1 -2
-3 -3 -2 -2 -2 -2 -2 -2 -2 -2 -2 -1 -2 -2 -3 -3 -3 -4 -5 -5 -4 -4 -4 -3 -3 -3 -4 -3 -3 -3 -3 -2 -2 -2 -2 -2 -2 -2
-3 -3 -3 -3 -3 -3 -3 -3 -3 -3 -3 -4 -4 -4 -5 -6 -5 -5 -7 -6 -7 -7 -6 -8 -5 -6 -5 -4 -4 -3 -3 -3 -2 -2 -3 -2 -2 -2
-4 -4 -4 -4 -4 -4 -4 -4 -5 -5 -5 -5 -5 -6 -6 -7 -7 -8 -8 -8 -8 -7 -8 -8 -7 -7 -7 -5 -4 -4 -4 -3 -3 -3 -3 -2 -2 -2
-4 -4 -4 -5 -5 -5 -4 -5 -6 -6 -5 -5 -6 -6 -7 -8 -8 -8 -8 -8 -7 -8 -8 -8 -8 -7 -7 -6 -5 -4 -5 -4 -4 -3 -3 -3 -3 -3
-5 -5 -5 -5 -5 -5 -5 -6 -6 -6 -6 -6 -6 -7 -7 -7 -8 -8 -8 -7 -7 -8 -8 -8 -8 -8 -7 -7 -6 -5 -5 -5 -4 -4 -4 -4 -4 -4
-5 -5 -5 -6 -6 -6 -6 -6 -6 -6 -6 -7 -7 -7 -8 -8 -9 -9 -9 -8 -8 -8 -8 -8 -8 -8 -7 -7 -7 -6 -6 -6 -6 -5 -5 -5 -5 -5
-5 -6 -6 -6 -7 -7 -7 -7 -7 -7 -7 -7 -7 -8 -8 -8 -9 -8 -8 -8 -8 -8 -8 -8 -8 -7 -7 -7 -7 -7 -7 -7 -6 -6 -6 -5 -5 -5
-6 -6 -7 -7 -7 -7 -7 -7 -7 -8 -8 -8 -8 -8 -8 -8 -8 -8 -8 -8 -8 -8 -8 -8 -8 -8 -8 -8 -7 -7 -7 -7 -6 -6 -6 -6 -6 -6
-7 -7 -7 -7 -7 -8 -8 -8 -8 -9 -9 -9 -9 -8 -8 -8 -8 -8 -8 -8 -8 -8 -8 -8 -8 -8 -8 -8 -8 -7 -7 -7 -7 -7 -7 -7 -7 -7
-7 -7 -7 -8 -8 -8 -8 -9 -9 -10 -9 -9 -9 -9 -9 -9 -9 -9 -9 -9 -9 -8 -8 -8 -8 -8 -8 -8 -8 -8 -7 -7 -7 -8 -8 -8 -8 -8
-7 -7 -8 -8 -8 -8 -9 -9 -10 -10 -10 -9 -9 -9 -9 -9 -9 -9 -9 -9 -9 -9 -9 -8 -8 -8 -8 -8 -8 -8 -8 -8 -9 -9 -9 -8 -8 -8
-8 -8 -8 -8 -9 -9 -10 -10 -10 -10 -10 -9 -10 -10 -10 -10 -10 -10 -9 -9 -9 -9 -9 -9 -9 -9 -9 -9 -9 -9 -9 -9 -10 -10 -9 -9 -9 -9
-8 -8 -9 -9 -10 -10 -10 -10 -10 -10 -10 -10 -10 -10 -10 -10 -10 -10 -10 -10 -10 -10 -10 -10 -10 -10 -10 -10 -10 -10 -11 -11 -11 -11 -10 -10 -10 -10
-9 -9 -10 -10 -11 -11 -11 -11 -11 -11 -10 -10 -10 -10 -10 -10 -10 -10 -10 -10 -10 -11 -11 -11 -12 -12 -12 -12 -12 -12 -12 -12 -12 -11 -11 -11 -10 -10
-9 -10 -10 -11 -11 -11 -11 -11 -11 -11 -11 -10 -10 -11 -11 -11 -11 -11 -11 -11 -12 -12 -12 -12 -12 -12 -13 -13 -13 -13 -13 -13 -12 -12 -12 -12 -11 -11
-10 -10 -11 -11 -11 -11 -11 -11 -11 -11 -11 -11 -11 -11 -11 -11 -11 -11 -12 -12 -12 -12 -12 -12 -12 -13 -13 -13 -13 -13 -13 -13 -13 -12 -12 -12 -13 -12
-10 -10 -11 -12 -12 -12 -12 -12 -11 -11 -11 -11 -11 -11 -11 -11 -12 -12 -13 -13 -13 -12 -13 -13 -13 -13 -13 -13 -13 -13 -13 -13 -13 -13 -13 -13 -13 -13
-11 -11 -11 -12 -12 -12 -12 -12 -12 -11 -11 -12 -12 -12 -12 -12 -12 -12 -13 -13 -12 -12 -12 -13 -13 -13 -13 -13 -14 -14 -13 -13 -14 -14 -14 -14 -14 -14
-11 -11 -12 -12 -12 -12 -12 -12 -12 -12 -12 -12 -12 -12 -12 -12 -12 -12 -12 -12 -12 -12 -13 -13 -13 -13 -14 -14 -14 -15 -15 -15 -14 -14 -14 -14 -14 -14
-12 -12 -12 -12 -12 -12 -12 -12 -12 -12 -12 -12 -13 -13 -13 -13 -13 -13 -13 -12 -12 -13 -13 -13 -14 -14 -14 -14 -14 -15 -15 -16 -16 -16 -16 -15 -15 -15
-12 -12 -12 -12 -12 -12 -12 -12 -12 -12 -12 -13 -13 -13 -13 -13 -13 -13 -13 -13 -13 -13 -14 -14 -14 -14 -15 -15 -15 -15 -15 -16 -16 -17 -17 -18 -17 -17